www.pogodaiklimat.ru

Погода и климат >> Архив погоды >> Кот-д'Ивуар >> Бондуку


ПОГОДА в Бондуку

  • Прогноз погоды в Бондуку
  • Монитор погоды в Бондуку

АРХИВ ПОГОДЫ в Бондуку

Время (UTC), дата Ветер
(напр.,м/с)
 
Видим.   Явления Облачность Т
(С)
Тd
(С)
f
(%)
Тe
(С)
Тes
(С)
Комфортность P
(гПа)
Po
(гПа)
Тmin
(С)
Tmax
(С)
R
(мм)
R24
(мм)
S
(см)
06 9.06 штиль 0 8000 м 10/10 400 м
[Sc]
+23.8 +22.6 93 +31 +31 очень
душно
1013.1 971.7 +22.6 0.0
12 9.06 штиль 0 10 км 9/8 450 м
[Cu med, cong Ac As]
+28.8 +22.6 69 +38 +42 очень
душно
1013.2 972.4
18 9.06 штиль 0 10 км 8/4 450 м
[Cu med, cong Ci sp]
+29.0 +22.5 68 +38 +38 очень
душно
1010.0 969.4 +31.5
00 10.06 штиль 0 8000 м гроза, ливневой дождь 9/6 400 м
[Cb cap Ac As]
+23.4 +22.7 96 +33 +33 очень
душно
1012.8 971.3 5
06 10.06 штиль 0 6000 м {гроза, дождь} 10/10 180 м
[Sc]
+23.0 +22.3 96 +31 +31 очень
душно
1012.2 970.7 +22.5 6
12 10.06 З 1 8000 м в посл. час дождь {морось} 10/10 400 м
[Sc]
+25.2 +22.0 82 +32 +32 очень
душно
1012.8 971.5 0.0
18 10.06 штиль 0 10 км 9/5 400 м
[Sc Ac As]
+24.8 +22.9 89 +33 +33 очень
душно
1011.1 969.9 +26.8 0.0
00 11.06 штиль 0 10 км 9/9 400 м
[Sc]
+23.7 +22.1 91 +31 +31 очень
душно
1013.5 972.0
06 11.06 штиль 0 8000 м 10/10 180 м
[Sc]
+22.9 +21.6 92 +31 +31 очень
душно
1013.4 971.8 +22.5 0.0
12 11.06 штиль 0 10 км {дождь} 6/6 400 м
[Cu med, cong Ac trans]
+27.5 +22.1 72 +36 +47 очень
душно
1013.3 972.3 3
18 11.06 З 1 10 км 6/4 400 м
[Cu med, cong Ac trans Ci sp]
+27.3 +22.8 76 +36 +36 очень
душно
1010.7 969.8 +28.8 3
00 12.06 штиль 0 10 км 6/6 400 м
[Sc]
+23.8 +22.6 93 +31 +31 очень
душно
1012.8 971.4
06 12.06 штиль 0 8000 м 10/10 400 м
[Sc]
+23.8 +22.6 93 +31 +31 очень
душно
1013.7 972.2 +23.0 3
12 12.06 штиль 0 10 км 6/6 400 м
[Cu med, cong]
+28.5 +22.6 70 +37 +49 очень
душно
1013.7 972.9
18 12.06 штиль 0 10 км ясно +29.8 +21.7 62 +38 +38 очень
душно
1010.7 970.1 +31.6
00 13.06 штиль 0 10 км 4/4 400 м
[Cu med, cong]
+25.2 +22.6 86 +33 +33 очень
душно
1013.6 972.3
06 13.06 З 2 6000 м 10/10 180 м
[Sc]
+23.8 +22.0 90 +31 +31 очень
душно
1014.7 973.2 +23.2
12 13.06 З 1 10 км 6/6 400 м
[Cu med, cong]
+27.3 +22.5 75 +36 +45 очень
душно
1014.4 973.4
21 13.06 штиль 0 10 км ясно +26.1 +23.5 86 +35 +35 очень
душно
1013.1 972.0
00 14.06 штиль 0 10 км ясно +25.1 +23.5 91 +34 +34 очень
душно
1013.8 972.5
03 14.06 штиль 0 10 км ясно +24.5 +23.1 92 +33 +33 очень
душно
1012.5 971.2
06 14.06 штиль 0 8000 м 3/3 400 м
[Sc]
+23.9 +22.6 92 +31 +31 очень
душно
1013.5 972.1 +23.5
09 14.06 Ю 1 8000 м 9/9 400 м
[Sc]
+25.1 +22.2 84 +33 +34 очень
душно
1015.0 973.6
12 14.06 СЗ 1 8000 м гроза, ливневой дождь 9/6 400 м
[Cb cap Ac As]
+21.0 +20.7 98 +27 +32 душно 1015.4 973.4 4
15 14.06 штиль 0 10 км {гроза, дождь} 9/0
[Ac trans Ci sp]
+23.2 +22.2 94 +32 +41 очень
душно
1011.6 970.1
18 14.06 штиль 0 10 км {гроза, дождь} 8/0
[Ac trans Ci sp]
+26.5 +22.4 78 +35 +35 очень
душно
1011.5 970.5 +28.7 5
21 14.06 штиль 0 8000 м местами туман поземный {дождь} 10/8 400 м
[Cu med, cong Ac As]
+21.6 +20.5 93 +27 +27 душно 1015.4 973.5
03 15.06 штиль 0 8000 м 9/0
[Ac As]
+21.5 +21.2 98 +27 +27 душно 1012.6 970.8
06 15.06 штиль 0 10 км 10/0
[Ac As]
+21.6 +21.2 98 +28 +28 очень
душно
1012.9 977.1 +21.0 10
09 15.06 штиль 0 10 км 8/3 400 м
[Sc Ac trans]
+24.5 +22.3 88 +32 +37 очень
душно
1013.9 972.5
12 15.06 штиль 0 10 км 9/9 400 м
[Cu hum]
+27.5 +23.4 78 +37 +40 очень
душно
1012.9 972.0
15 15.06 штиль 0 10 км 8/8 450 м
[Cu med, cong]
+29.5 +22.8 67 +39 +42 очень
душно
1010.9 970.3
18 15.06 штиль 0 10 км 6/0
[Ci sp]
+28.8 +23.4 73 +39 +39 очень
душно
1012.0 971.3 +30.2
21 15.06 штиль 0 10 км ясно +26.0 +23.7 87 +35 +35 очень
душно
1014.1 972.9

 

Местоположение метеостанции Бондуку (Кот-д'Ивуар): широта 8.05 долгота -2.78 высота над уровнем моря 370 м.

В архиве по умолчанию представлена погода в Бондуку за последнюю неделю. Архивные данные за месяц целиком и за предыдущие месяцы, начиная с января 2011 года, Вы можете получить, выбрав интересующий диапазон дат из раскрывающегося списка и нажав кнопку "Ввод!".


*Определитесь, кто Вы:
робот инопланетянин человек

Внимание! Время в таблицах - всемирное. Для получения местного времени необходимо прибавить поправку, которая равна 0 ч.

Смотрите также архив погоды в соседних городах и на ближайших метеорологических станциях:

Погода в Уэнчи (Гана) (82 км)
Погода в Суняни (Гана) (94 км)
Погода в Боле (Гана) (114 км)
Погода в Кумаси (Гана) (197 км)
Погода в Сефви Беквай (Гана) (212 км)
Погода в Ва (Гана) (225 км)
Погода в Буаке (Кот-д'Ивуар) (256 км)
Погода в Гауа (Буркина-Фасо) (257 км)
Погода в Димбокро (Кот-д'Ивуар) (263 км)
Погода в Тамале (Гана) (266 км)

Пояснения к столбцам:

Ветер - указаны скорость ветра в м/с - средняя за 10 мин, порывы в срок и между сроками (в фигурных скобках) и направление, откуда дует ветер: С - северный, СВ - северо-восточный, В - восточный, ЮВ - юго-восточный, Ю - южный, ЮЗ - юго-западный, З - западный, СЗ - северо-западный.
Видимость - горизонтальная дальность видимости в метрах или километрах. При видимости от 1 до 10 км при отсутствии осадков обычно наблюдается дымка, при ухудшении видимости до 1 км и менее - туман. В сухую погоду видимость может ухудшаться дымом, пылью или мглою.
Явления - указаны атмосферные явления, наблюдавшиеся в срок или в последний час перед сроком; фигурными скобками обозначены явления, наблюдавшиеся между сроками (за 1-3 часа до срока); квадратными скобками обозначены град или гололедные отложения с указанием их диаметра в мм.
Облачность - указаны через наклонную черту общая и нижняя облачность в баллах и высота нижней границы облаков в метрах; квадратными скобками обозначены формы облаков: Ci - перистые, Cs - перисто-слоистые, Cc - перисто-кучевые, Ac - высококучевые, As - высокослоистые, Sc - слоисто-кучевые, Ns - слоисто-дождевые, Cu - кучевые, Cb - кучево-дождевые. Подробнее классификацию облаков см. в Атласе облаков (PDF).
T - Температура воздуха - температура, измеренная на высоте 2 м над землей.
Td - Температура точки росы - температура, при понижении до которой содержащийся в воздухе водяной пар достигнет насыщения.
f - Относительная влажность воздуха - влажноcть воздуха, измеренная на высоте 2 м над землей.
Te - Эффективная температура - температура, которую ощущает одетый по сезону человек в тени. Характеристика душности погоды. При расчете учитывается влияние влажности воздуха и скорости ветра на теплоощущения человека.
Tes - Эффективная температура на солнце - температура, которую ощущает человек, с поправкой на солнечный нагрев. Характеристика знойности погоды. Зависит от высоты солнца над горизонтом, облачности и скорости ветра. Ночью, в пасмурную погоду, а также при ветре 12 м/с и более поправка равна нулю.
P - Атмосферное давление - приведенное к уровню моря атмосферное давление.
Po - Атмосферное давление - измеренное на уровне метеостанции атмосферное давление.
Tmin - Минимальная температура - минимум температуры воздуха на высоте 2 м над землей.
Tmax - Максимальная температура - максимум температуры воздуха на высоте 2 м над землей.
R - Количество осадков - Количество выпавших осадков за период времени, мм. При наведении курсора мыши на число - период времени, за который выпало указанное количество осадков.
R24 - Количество осадков - Количество выпавших осадков за 24 часа, мм.
S - Снежный покров - Высота снежного покрова, см. При наведении курсора мыши на число - состояние снежного покрова и степень покрытия местности в баллах.